Pasco, WA

11:41 AM PDT on April 24, 2017 (GMT -0700)
Tri-Cities

Weather History for KPSC - January, 2012

Change the Weather History Date:

Thursday, January 19, 2012

  Actual Average Record
Temperature  
Mean Temperature 20 °F 35 °F  
Max Temperature 23 °F 42 °F 59 °F (2005)
Min Temperature 17 °F 29 °F 13 °F (2007)
Degree Days  
Heating Degree Days 45 30  
Month to date heating degree days 629 590  
Since 1 July heating degree days 2801 2806  
Cooling Degree Days 0 0  
Month to date cooling degree days 0 0  
Year to date cooling degree days 0 0  
Moisture  
Dew Point 16 °F    
Average Humidity 86    
Maximum Humidity 92    
Minimum Humidity 80    
Precipitation  
Precipitation 0.37 in 0.03 in 0.39 in (1950)
Month to date precipitation 0.69 0.86  
Year to date precipitation 0.69 0.86  
Sea Level Pressure  
Sea Level Pressure 29.82 in    
Wind  
Wind Speed 9 mph (North)    
Max Wind Speed 16 mph    
Max Gust Speed 18 mph    
Visibility 6 miles    
Events Rain , Snow    
T = Trace of Precipitation, MM = Missing Value Source: NWS Daily Summary

Daily Weather History Graph

Daily Weather History Graph

Search for Another Location

Airport or City:

Trip Planner

Search our weather history database for the weather conditions in past years. The results will help you decide how hot, cold, wet, or windy it might be!

Date:

Astronomy

Jan. 19, 2012 Rise Set
Actual Time 7:32 AM PST 4:41 PM PST
Civil Twilight 6:59 AM PST 5:15 PM PST
Nautical Twilight 6:22 AM PST 5:52 PM PST
Astronomical Twilight 5:46 AM PST 6:28 PM PST
Moon 4:18 AM PST (1/19) 1:14 PM PST (1/19)
Length of Visible Light 10h 15m
Length of Day
9h 09m
Waning Crescent, 15% of the Moon is Illuminated
Jan 19
Waning Crescent
Jan 22
New
Jan 30
First Quarter
Feb 7
Full
Feb 14
Last Quarter

Hourly Weather History & Observations

Time (PST) Temp. Windchill Dew Point Humidity Pressure Visibility Wind Dir Wind Speed Gust Speed Precip Events Conditions
12:53 AM 19.9 °F 10.1 °F 17.1 °F 89% 29.92 in 9.0 mi North 8.1 mph - N/A   Overcast
1:53 AM 19.0 °F 10.0 °F 16.0 °F 88% 29.92 in 10.0 mi NNE 6.9 mph - N/A   Overcast
2:25 AM 19.4 °F 10.4 °F 15.8 °F 86% 29.90 in 10.0 mi NNE 6.9 mph - N/A   Overcast
2:53 AM 19.0 °F 10.0 °F 16.0 °F 88% 29.91 in 10.0 mi NNE 6.9 mph - N/A   Overcast
3:46 AM 17.6 °F 9.3 °F 15.8 °F 93% 29.88 in 10.0 mi North 5.8 mph - N/A   Overcast
3:53 AM 18.0 °F 8.7 °F 16.0 °F 92% 29.90 in 10.0 mi North 6.9 mph - 0.00 in   Overcast
4:53 AM 18.0 °F 6.9 °F 16.0 °F 92% 29.87 in 9.0 mi North 9.2 mph - 0.00 in   Overcast
5:53 AM 18.0 °F 3.6 °F 14.0 °F 84% 29.86 in 10.0 mi North 15.0 mph - 0.00 in   Overcast
6:16 AM 17.6 °F 5.7 °F 14.0 °F 86% 29.83 in 10.0 mi North 10.4 mph - 0.00 in Rain Light Freezing Rain
6:33 AM 17.6 °F 6.4 °F 14.0 °F 86% 29.83 in 7.0 mi North 9.2 mph - 0.00 in   Overcast
6:49 AM 17.6 °F 5.7 °F 14.0 °F 86% 29.82 in 8.0 mi North 10.4 mph - 0.01 in Rain Light Freezing Rain
6:53 AM 18.0 °F 5.4 °F 14.0 °F 84% 29.84 in 7.0 mi North 11.5 mph - 0.01 in Rain Light Freezing Rain
7:53 AM 17.1 °F 6.6 °F 14.0 °F 88% 29.83 in 2.5 mi NNW 8.1 mph - 0.04 in Rain Light Freezing Rain
8:53 AM 17.1 °F 3.0 °F 12.9 °F 84% 29.81 in 2.5 mi North 13.8 mph - 0.02 in Rain Light Freezing Rain
9:33 AM 17.6 °F 5.0 °F 12.2 °F 79% 29.78 in 1.5 mi NNW 11.5 mph - 0.02 in Rain Light Freezing Rain
10:53 AM 19.0 °F 9.0 °F 15.1 °F 85% 29.77 in 1.5 mi NNW 8.1 mph - 0.03 in Rain Light Freezing Rain
10:56 AM 19.4 °F 8.6 °F 15.8 °F 86% 29.75 in 3.0 mi NNW 9.2 mph - 0.00 in Rain Light Freezing Rain
11:04 AM 19.4 °F 6.6 °F 14.0 °F 80% 29.75 in 1.5 mi NNW 12.7 mph - 0.01 in Rain Light Freezing Rain
11:53 AM 19.0 °F 8.2 °F 16.0 °F 88% 29.75 in 1.5 mi NNW 9.2 mph - 0.05 in Rain Light Freezing Rain
12:00 PM 19.4 °F 8.6 °F 15.8 °F 86% 29.72 in 2.5 mi NNW 9.2 mph - 0.00 in Rain Light Freezing Rain
12:53 PM 19.0 °F 6.8 °F 15.1 °F 85% 29.72 in 2.5 mi NNW 11.5 mph - 0.05 in Rain Light Freezing Rain
1:53 PM 19.0 °F 7.5 °F 16.0 °F 88% 29.70 in 2.0 mi NW 10.4 mph - 0.06 in Rain Light Freezing Rain
2:51 PM 19.4 °F 6.6 °F 17.6 °F 93% 29.68 in 2.0 mi NW 12.7 mph - 0.03 in Rain Light Freezing Rain
2:53 PM 19.9 °F 7.9 °F 16.0 °F 85% 29.70 in 2.0 mi NW 11.5 mph - 0.03 in Rain Light Freezing Rain
3:53 PM 19.9 °F 7.3 °F 17.1 °F 89% 29.71 in 2.0 mi NW 12.7 mph - 0.03 in Rain Light Freezing Rain
4:00 PM 19.4 °F 6.6 °F 17.6 °F 93% 29.69 in 3.0 mi NW 12.7 mph - 0.01 in Rain Light Freezing Rain
5:53 PM 21.0 °F 11.4 °F 19.0 °F 92% 29.77 in 10.0 mi NW 8.1 mph - 0.00 in Snow Light Snow
7:53 PM 21.9 °F - 19.0 °F 89% 29.84 in 9.0 mi Calm Calm - 0.00 in   Overcast
8:34 PM 21.2 °F 14.9 °F 19.4 °F 93% 29.84 in 10.0 mi ESE 4.6 mph - N/A   Overcast
8:53 PM 21.9 °F 15.7 °F 19.0 °F 89% 29.86 in 10.0 mi ESE 4.6 mph - N/A   Overcast
9:53 PM 21.9 °F 14.5 °F 19.0 °F 89% 29.88 in 10.0 mi ESE 5.8 mph - N/A   Mostly Cloudy
10:10 PM 21.2 °F 12.6 °F 19.4 °F 93% 29.87 in 10.0 mi SE 6.9 mph - N/A   Overcast
10:53 PM 23.0 °F 17.0 °F 19.0 °F 85% 29.90 in 10.0 mi East 4.6 mph - N/A   Overcast
11:53 PM 19.9 °F 14.9 °F 18.0 °F 92% 29.92 in 10.0 mi NE 3.5 mph - N/A   Overcast